This is the latest recevied weather packets stored in our database for station/object KC3QLX. If no packets are shown the sender has not sent any weather packets the latest 10 day(s).
| Time | Temp. | Humidity | Pressure | Rain* | Wind** | Luminosity | Snow |
|---|---|---|---|---|---|---|---|
| 1777417533 | 13.33° C | 66% | 1017.8 hPa | 0 mm | - | 9 W/m² | - |
| 1777417230 | 13.33° C | 67% | 1017.8 hPa | 0 mm | - | 12 W/m² | - |
| 1777416926 | 13.33° C | 67% | 1017.6 hPa | 0 mm | - | 16 W/m² | - |
| 1777416621 | 13.33° C | 68% | 1017.5 hPa | 0 mm | - | 19 W/m² | - |
| 1777416317 | 13.89° C | 66% | 1017.9 hPa | 0 mm | - | 23 W/m² | - |
| 1777416016 | 13.89° C | 67% | 1017.8 hPa | 0 mm | - | 30 W/m² | - |
| 1777415712 | 13.89° C | 68% | 1017.8 hPa | 0 mm | - | 33 W/m² | - |
| 1777415408 | 13.89° C | 68% | 1018.1 hPa | 0 mm | - | 39 W/m² | - |
| 1777415108 | 13.89° C | 68% | 1017.8 hPa | 0 mm | - | 40 W/m² | - |
| 1777414803 | 13.89° C | 67% | 1018.1 hPa | 0 mm | - | 51 W/m² | - |
| 1777414499 | 13.89° C | 67% | 1018 hPa | 0 mm | - | 41 W/m² | - |
| 1777414197 | 13.89° C | 69% | 1017.9 hPa | 0 mm | - | 61 W/m² | - |
| 1777413893 | 13.89° C | 68% | 1017.6 hPa | 0 mm | - | 82 W/m² | - |
| 1777413589 | 13.89° C | 68% | 1017.9 hPa | 0 mm | - | 72 W/m² | - |
| 1777413285 | 13.89° C | 68% | 1017.9 hPa | 0 mm | - | 51 W/m² | - |
| 1777412981 | 13.89° C | 67% | 1017.9 hPa | 0 mm | - | 54 W/m² | - |
| 1777412680 | 13.89° C | 68% | 1017.9 hPa | 0 mm | - | 64 W/m² | - |
| 1777412378 | 13.89° C | 67% | 1018.1 hPa | 0 mm | - | 82 W/m² | - |
| 1777412072 | 14.44° C | 67% | 1017.8 hPa | 0 mm | - | 78 W/m² | - |
| 1777411767 | 14.44° C | 69% | 1018 hPa | 0 mm | - | 116 W/m² | - |
| 1777411461 | 13.89° C | 70% | 1017.8 hPa | 0 mm | - | 96 W/m² | - |
| 1777411156 | 13.89° C | 69% | 1018 hPa | 0 mm | - | 88 W/m² | - |
| 1777410856 | 13.89° C | 70% | 1018.2 hPa | 0 mm | - | 86 W/m² | - |
| 1777410550 | 13.89° C | 70% | 1018.2 hPa | 0 mm | - | 103 W/m² | - |
| 1777410249 | 13.89° C | 69% | 1017.9 hPa | 0 mm | - | 100 W/m² | - |
* Rain latest hour (hover to see other rain measurements)
** Current wind speed in m/s (hover to see current wind gust speed)